Regional Weather Roundup
Issued by NWS

Home | Current Version | Previous Version | Graphics & Text | Print | Product List | Glossary On
Versions: 1 2 3 4 5 6 7 8 9 10 11 12 13 14 15 16 17 18 19 20 21 22 23 24 25 26 27 28 29 30 31 32 33 34 35 36 37 38 39 40 41 42 43 44 45 46 47 48 49 50
000
ASUS43 KFSD 270310
RWRSD

WEATHER ROUNDUP FOR SOUTH DAKOTA
NATIONAL WEATHER SERVICE SIOUX FALLS SD
900 PM CST MON JAN 26 2015

NOTE: "FAIR" INDICATES FEW OR NO CLOUDS BELOW 12,000 FEET WITH NO
SIGNIFICANT WEATHER AND/OR OBSTRUCTIONS TO VISIBILITY.


SDZ001>005-009-010-012>017-270400-
NORTHWEST AND NORTH CENTRAL SOUTH DAKOTA

CITY           SKY/WX    TMP DP  RH WIND       PRES   REMARKS
BUFFALO          N/A     52  33  48 W3        29.88F
FAITH            N/A     40  29  64 S12       29.95F
MOBRIDGE       PTCLDY    36  30  79 SE5       29.95S
$$

SDZ012>016-024>037-041>051-057-063-072>074-270400-
SOUTHWEST AND SOUTH CENTRAL SOUTH DAKOTA

CITY           SKY/WX    TMP DP  RH WIND       PRES   REMARKS
RAPID CTY ARPT CLEAR     37  27  67 CALM      29.99F
PIERRE         CLEAR     35  27  72 CALM      29.98S
CUSTER         CLEAR     47  28  47 W7        30.09F
ELLSWORTH AFB  CLEAR     43  29  56 W8        29.98F
PHILIP         CLEAR     37  29  72 W6        29.98S
PINE RIDGE     CLEAR     38  30  73 W5        30.03F
SPEARFISH      FAIR      55  27  33 W10       30.02S
WINNER         FAIR      42  30  62 S7        30.01S
$$

SDZ004>011-016>023-039-040-270400-
NORTHEAST SOUTH DAKOTA

CITY           SKY/WX    TMP DP  RH WIND       PRES   REMARKS
ABERDEEN       CLEAR     31  28  89 N7        30.01S WCI  24
WATERTOWN      CLEAR     32  29  88 N9        29.98R WCI  24
SISSETON         N/A     30  29  96 N6        29.99R WCI  24
$$

SDZ017-020-022-023-036>040-048>070-270400-
SOUTHEAST SOUTH DAKOTA

CITY           SKY/WX    TMP DP  RH WIND       PRES   REMARKS
SIOUX FALLS    PTCLDY    33  30  88 CALM      30.00R
HURON          MOCLDY    32  30  92 NW5       30.01R WCI  27
CHAMBERLAIN    CLEAR     36  30  81 CALM      30.00S
MITCHELL       PTCLDY    36  31  82 W7        30.02R
YANKTON        CLEAR     37  34  87 SW5       30.03R
$$

ABBREVIATIONS USED IN REMARKS
   TC - TEMPERATURE IN CELSIUS
  WCI - WIND CHILL INDEX
   HX - HEAT INDEX
  VSB - VISIBILITY



USA.gov is the U.S. government's official web portal to all federal, state and local government web resources and services.